FW7875 Weather Reports


Display with metric or nautical units.
time (UTC)temp
F
wind
direction
speed
MPH
gust
MPH
rain 1hr
in
rain 24hr
in
rain mn
in
humidity
%
barometer
mb
20260904043518 56 86 5.0 7.0 0.00 0.00 0.00 57 1020.6
20260904043039 56 122 4.0 6.0 0.00 0.00 0.00 58 1020.7
20260904042519 56 88 2.0 4.0 0.00 0.00 0.00 57 1020.7
20260904042021 56 87 3.0 4.0 0.00 0.00 0.00 58 1020.8
20260904041539 56 101 3.0 5.0 0.00 0.00 0.00 58 1020.8
20260904041018 56 93 3.0 5.0 0.00 0.00 0.00 57 1020.8
20260904040520 56 101 4.0 6.0 0.00 0.00 0.00 57 1020.9
20260904040039 57 101 4.0 6.0 0.00 0.00 0.00 56 1020.8
20260904035519 57 97 4.0 5.0 0.00 0.00 0.00 54 1020.8
20260904035018 58 99 4.0 6.0 0.00 0.00 0.00 53 1020.8
20260904034537 59 121 4.0 6.0 0.00 0.00 0.00 51 1020.7
20260904034020 59 101 3.0 7.0 0.00 0.00 0.00 50 1020.7
20260904033520 61 124 4.0 7.0 0.00 0.00 0.00 48 1020.6
20260904033040 59 116 4.0 6.0 0.00 0.00 0.00 50 1020.5
20260904032518 59 118 3.0 4.0 0.00 0.00 0.00 51 1020.7
20260904032023 59 91 3.0 5.0 0.00 0.00 0.00 52 1020.6
20260904031538 60 97 3.0 5.0 0.00 0.00 0.00 50 1020.4
20260904031018 61 105 2.0 6.0 0.00 0.00 0.00 48 1020.5
20260904030518 64 103 3.0 6.0 0.00 0.00 0.00 43 1020.5
20260904030036 64 137 2.0 5.0 0.00 0.00 0.00 43 1020.4
20260904025521 63 130 3.0 5.0 0.00 0.00 0.00 44 1020.4
20260904025017 63 127 2.0 3.0 0.00 0.00 0.00 44 1020.4
20260904024542 63 126 2.0 3.0 0.00 0.00 0.00 43 1020.3
20260904024018 65 106 2.0 2.0 0.00 0.00 0.00 41 1020.3
20260904023523 67 115 2.0 3.0 0.00 0.00 0.00 39 1020.3
20260904023038 68 123 2.0 4.0 0.00 0.00 0.00 38 1020.2
20260904022518 69 132 2.0 6.0 0.00 0.00 0.00 36 1020.2
20260904022023 70 146 3.0 10.0 0.00 0.00 0.00 35 1020.1
20260904021539 71 193 4.0 10.0 0.00 0.00 0.00 35 1020.1
20260904021023 71 229 4.0 8.0 0.00 0.00 0.00 35 1020.0
20260904020519 71 216 3.0 6.0 0.00 0.00 0.00 35 1019.9
20260904020038 72 224 4.0 6.0 0.00 0.00 0.00 34 1019.9
20260904015517 72 217 3.0 13.0 0.00 0.00 0.00 33 1019.8
20260904015020 73 187 7.0 13.0 0.00 0.00 0.00 33 1019.9
20260904014550 73 174 7.0 10.0 0.00 0.00 0.00 33 1019.9
20260904014019 73 229 4.0 11.0 0.00 0.00 0.00 32 1019.9
20260904013518 74 178 8.0 12.0 0.00 0.00 0.00 31 1019.8
20260904013035 74 185 6.0 12.0 0.00 0.00 0.00 31 1019.9
20260904012519 75 188 7.0 12.0 0.00 0.00 0.00 30 1019.8
20260904012019 75 173 6.0 13.0 0.00 0.00 0.00 30 1019.8
20260904011538 75 210 6.0 13.0 0.00 0.00 0.00 30 1019.7
20260904011020 76 213 8.0 14.0 0.00 0.00 0.00 29 1019.7
20260904010520 76 219 9.0 14.0 0.00 0.00 0.00 29 1019.8
20260904010044 76 205 8.0 13.0 0.00 0.00 0.00 28 1019.9
20260904005519 76 201 9.0 19.0 0.00 0.00 0.00 28 1019.8
20260904005019 76 201 11.0 19.0 0.00 0.00 0.00 28 1019.8
20260904004539 75 177 12.0 19.0 0.00 0.00 0.00 28 1019.9
20260904004017 76 195 10.0 15.0 0.00 0.00 0.00 28 1019.9
20260904003522 76 214 10.0 15.0 0.00 0.00 0.00 27 1019.9
20260904003035 77 264 8.0 13.0 0.00 0.00 0.00 27 1020.0
20260904002520 77 197 8.0 13.0 0.00 0.00 0.00 26 1019.9
20260904002018 78 202 7.0 14.0 0.00 0.00 0.00 25 1020.1
20260904001540 78 200 11.0 17.0 0.00 0.00 0.00 24 1020.0
20260904001021 78 201 9.0 17.0 0.00 0.00 0.00 25 1020.0
20260904000521 79 223 9.0 17.0 0.00 0.00 0.00 25 1020.1
20260904000047 78 240 8.0 20.0 0.00 0.00 0.00 25 1020.1
20260903235520 78 198 13.0 20.0 0.00 0.00 0.00 25 1020.1
20260903235016 78 274 11.0 17.0 0.00 0.00 0.00 25 1020.0
20260903234540 79 249 10.0 15.0 0.00 0.00 0.00 25 1020.1
20260903234019 79 210 6.0 21.0 0.00 0.00 0.00 24 1020.0
20260903233521 79 208 10.0 21.0 0.00 0.00 0.00 24 1020.1
20260903233035 79 217 12.0 22.0 0.00 0.00 0.00 24 1019.9
20260903232516 78 195 9.0 22.0 0.00 0.00 0.00 23 1019.9
20260903232018 79 196 11.0 25.0 0.00 0.00 0.00 24 1020.0
20260903231536 79 256 15.0 25.0 0.00 0.00 0.00 24 1020.0
20260903231018 79 255 15.0 21.0 0.00 0.00 0.00 24 1020.0
20260903230520 80 250 8.0 14.0 0.00 0.00 0.00 22 1020.1
20260903230035 80 224 7.0 17.0 0.00 0.00 0.00 23 1020.1
20260903225518 79 178 12.0 23.0 0.00 0.00 0.00 24 1020.2
20260903225021 79 215 14.0 23.0 0.00 0.00 0.00 22 1020.3
20260903224540 79 179 16.0 22.0 0.00 0.00 0.00 22 1020.1
20260903224016 79 218 13.0 19.0 0.00 0.00 0.00 22 1020.2
20260903223520 79 214 9.0 22.0 0.00 0.00 0.00 23 1020.3
20260903223039 79 247 13.0 22.0 0.00 0.00 0.00 23 1020.2
20260903222520 79 216 10.0 20.0 0.00 0.00 0.00 23 1020.1
20260903222020 80 214 10.0 17.0 0.00 0.00 0.00 21 1020.3
20260903221535 79 240 11.0 22.0 0.00 0.00 0.00 23 1020.2
20260903221019 79 235 13.0 23.0 0.00 0.00 0.00 22 1020.2
20260903220519 79 234 14.0 23.0 0.00 0.00 0.00 24 1020.2
20260903220039 79 207 11.0 21.0 0.00 0.00 0.00 22 1020.3
20260903215521 79 223 15.0 21.0 0.00 0.00 0.00 23 1020.5
20260903215019 80 237 13.0 20.0 0.00 0.00 0.00 23 1020.4
20260903214537 80 229 11.0 20.0 0.00 0.00 0.00 24 1020.4
20260903214020 80 220 11.0 21.0 0.00 0.00 0.00 20 1020.5
20260903213518 79 209 13.0 26.0 0.00 0.00 0.00 22 1020.5
20260903213038 79 193 14.0 26.0 0.00 0.00 0.00 21 1020.6
20260903212518 79 304 15.0 23.0 0.00 0.00 0.00 24 1020.5
20260903212020 79 250 16.0 25.0 0.00 0.00 0.00 24 1020.5
20260903211537 79 231 13.0 25.0 0.00 0.00 0.00 25 1020.5
20260903211020 80 233 17.0 25.0 0.00 0.00 0.00 24 1020.4
20260903210518 80 225 11.0 21.0 0.00 0.00 0.00 23 1020.5
20260903210050 79 169 14.0 22.0 0.00 0.00 0.00 24 1021.0
20260903205519 80 250 13.0 22.0 0.00 0.00 0.00 24 1020.5
20260903205019 79 269 12.0 19.0 0.00 0.00 0.00 24 1020.7
20260903204550 79 243 12.0 25.0 0.00 0.00 0.00 24 1020.8
20260903204017 79 245 14.0 25.0 0.00 0.00 0.00 24 1020.8
20260903203518 79 237 11.0 21.0 0.00 0.00 0.00 23 1020.8
20260903203040 79 238 14.0 21.0 0.00 0.00 0.00 23 1021.0
20260903202518 79 232 5.0 17.0 0.00 0.00 0.00 24 1021.0
20260903202025 78 259 10.0 20.0 0.00 0.00 0.00 26 1021.1
20260903201535 77 297 9.0 20.0 0.00 0.00 0.00 26 1021.1
20260903201019 78 222 12.0 20.0 0.00 0.00 0.00 24 1021.2
20260903200518 78 221 15.0 20.0 0.00 0.00 0.00 24 1021.4
20260903200040 78 250 13.0 20.0 0.00 0.00 0.00 25 1021.4
20260903195517 78 215 10.0 19.0 0.00 0.00 0.00 27 1021.3
20260903195023 77 321 10.0 20.0 0.00 0.00 0.00 28 1021.3
20260903194537 77 274 11.0 20.0 0.00 0.00 0.00 29 1021.6
20260903194017 77 274 12.0 25.0 0.00 0.00 0.00 29 1021.7
20260903193521 76 273 12.0 25.0 0.00 0.00 0.00 29 1021.7
20260903193037 76 268 11.0 21.0 0.00 0.00 0.00 29 1021.7
20260903192519 76 255 12.0 20.0 0.00 0.00 0.00 30 1021.9
20260903192020 76 270 13.0 20.0 0.00 0.00 0.00 29 1021.9
20260903191535 76 262 14.0 21.0 0.00 0.00 0.00 29 1022.1
20260903191020 75 198 14.0 21.0 0.00 0.00 0.00 30 1022.2
20260903190520 75 246 10.0 20.0 0.00 0.00 0.00 30 1022.1
20260903190038 76 262 13.0 22.0 0.00 0.00 0.00 30 1022.2
20260903185518 75 259 12.0 22.0 0.00 0.00 0.00 30 1022.3
20260903185017 75 248 14.0 22.0 0.00 0.00 0.00 27 1022.4
20260903184536 75 235 13.0 22.0 0.00 0.00 0.00 32 1022.5
20260903184018 75 237 15.0 20.0 0.00 0.00 0.00 31 1022.6
20260903183518 75 235 13.0 21.0 0.00 0.00 0.00 30 1022.7
20260903183036 74 140 15.0 26.0 0.00 0.00 0.00 31 1022.7
20260903182520 74 191 16.0 26.0 0.00 0.00 0.00 31 1022.8
20260903182017 75 215 14.0 21.0 0.00 0.00 0.00 32 1022.9
20260903181536 75 236 13.0 21.0 0.00 0.00 0.00 33 1022.9
20260903181020 75 245 15.0 21.0 0.00 0.00 0.00 33 1023.0
20260903180521 74 216 15.0 21.0 0.00 0.00 0.00 31 1023.1
20260903180037 74 207 13.0 19.0 0.00 0.00 0.00 33 1023.1
20260903175519 75 240 11.0 23.0 0.00 0.00 0.00 33 1023.1
20260903175019 74 220 12.0 23.0 0.00 0.00 0.00 34 1023.0
20260903174537 73 268 11.0 22.0 0.00 0.00 0.00 36 1023.1
20260903174022 73 271 11.0 22.0 0.00 0.00 0.00 35 1023.1
20260903173519 74 257 16.0 22.0 0.00 0.00 0.00 35 1023.2
20260903173038 73 243 15.0 22.0 0.00 0.00 0.00 35 1023.4
20260903172521 74 203 12.0 22.0 0.00 0.00 0.00 33 1023.4
20260903172018 74 209 14.0 21.0 0.00 0.00 0.00 32 1023.3
20260903171537 73 274 12.0 21.0 0.00 0.00 0.00 34 1023.4
20260903171020 73 274 11.0 24.0 0.00 0.00 0.00 33 1023.2
20260903170520 73 226 14.0 24.0 0.00 0.00 0.00 32 1023.2
20260903170036 73 191 9.0 23.0 0.00 0.00 0.00 34 1023.3
20260903165520 72 221 11.0 28.0 0.00 0.00 0.00 34 1023.3
20260903165017 72 207 16.0 28.0 0.00 0.00 0.00 33 1023.2
20260903164544 72 212 14.0 25.0 0.00 0.00 0.00 35 1023.3
20260903164016 72 248 13.0 25.0 0.00 0.00 0.00 34 1023.2
20260903163521 72 214 15.0 25.0 0.00 0.00 0.00 35 1023.3
20260903163040 72 231 13.0 25.0 0.00 0.00 0.00 37 1023.2
20260903162522 72 252 17.0 25.0 0.00 0.00 0.00 36 1023.3
20260903162019 71 199 15.0 26.0 0.00 0.00 0.00 38 1023.2
20260903161537 71 197 16.0 26.0 0.00 0.00 0.00 38 1023.2
20260903161017 71 181 13.0 26.0 0.00 0.00 0.00 39 1023.2
20260903160520 71 204 13.0 22.0 0.00 0.00 0.00 38 1023.2
20260903160055 71 215 12.0 19.0 0.00 0.00 0.00 38 1023.1
20260903155519 70 238 12.0 21.0 0.00 0.00 0.00 38 1023.2
20260903155017 71 236 12.0 22.0 0.00 0.00 0.00 38 1023.1
20260903154539 70 228 15.0 23.0 0.00 0.00 0.00 38 1023.2
20260903154019 70 183 16.0 23.0 0.00 0.00 0.00 37 1023.2
20260903153518 70 192 10.0 21.0 0.00 0.00 0.00 39 1023.1
20260903153041 69 207 14.0 21.0 0.00 0.00 0.00 40 1023.2
20260903152523 69 203 14.0 21.0 0.00 0.00 0.00 40 1023.2
20260903152021 69 211 12.0 16.0 0.00 0.00 0.00 40 1023.2
20260903151542 69 189 11.0 16.0 0.00 0.00 0.00 41 1023.2
20260903151018 69 188 8.0 15.0 0.00 0.00 0.00 42 1023.1
20260903150520 69 275 8.0 21.0 0.00 0.00 0.00 41 1023.2
20260903150042 68 212 8.0 21.0 0.00 0.00 0.00 43 1023.2
20260903145522 68 233 12.0 21.0 0.00 0.00 0.00 43 1023.2
20260903145019 68 218 6.0 15.0 0.00 0.00 0.00 45 1023.1
20260903144535 67 203 5.0 9.0 0.00 0.00 0.00 46 1023.2
20260903144020 66 169 4.0 9.0 0.00 0.00 0.00 49 1023.2
20260903143520 66 185 6.0 11.0 0.00 0.00 0.00 49 1023.2
20260903143042 65 122 7.0 11.0 0.00 0.00 0.00 50 1023.2
20260903142521 65 128 7.0 11.0 0.00 0.00 0.00 51 1023.2
20260903142019 64 130 8.0 11.0 0.00 0.00 0.00 51 1023.1
20260903141543 64 125 7.0 11.0 0.00 0.00 0.00 52 1023.0
20260903141022 63 134 6.0 10.0 0.00 0.00 0.00 53 1023.0
20260903140517 63 139 6.0 10.0 0.00 0.00 0.00 54 1023.2
20260903140042 62 156 6.0 8.0 0.00 0.00 0.00 55 1023.2
20260903135519 62 126 4.0 9.0 0.00 0.00 0.00 56 1023.1
20260903135022 61 120 5.0 9.0 0.00 0.00 0.00 57 1023.1
20260903134540 60 131 7.0 9.0 0.00 0.00 0.00 58 1023.0
20260903134020 59 146 4.0 6.0 0.00 0.00 0.00 61 1023.1
20260903133519 58 132 5.0 7.0 0.00 0.00 0.00 63 1022.9
20260903133042 56 112 5.0 7.0 0.00 0.00 0.00 65 1022.8
20260903132520 56 110 5.0 7.0 0.00 0.00 0.00 66 1022.8
20260903132020 55 107 6.0 8.0 0.00 0.00 0.00 67 1022.8
20260903131541 55 113 6.0 8.0 0.00 0.00 0.00 67 1022.7
20260903131020 54 109 6.0 8.0 0.00 0.00 0.00 68 1022.6
20260903130519 54 111 5.0 7.0 0.00 0.00 0.00 67 1022.6
20260903130041 54 113 5.0 8.0 0.00 0.00 0.00 68 1022.5
20260903125520 54 119 5.0 9.0 0.00 0.00 0.00 68 1022.4
20260903125022 54 131 6.0 10.0 0.00 0.00 0.00 69 1022.4
20260903124549 54 131 7.0 10.0 0.00 0.00 0.00 69 1022.4
20260903124020 53 117 6.0 10.0 0.00 0.00 0.00 70 1022.4
20260903123521 53 113 6.0 9.0 0.00 0.00 0.00 70 1022.3
20260903123040 53 112 5.0 8.0 0.00 0.00 0.00 71 1022.3
20260903122519 53 117 4.0 6.0 0.00 0.00 0.00 70 1022.3
20260903122021 53 105 4.0 6.0 0.00 0.00 0.00 70 1022.3
20260903121538 53 109 5.0 6.0 0.00 0.00 0.00 70 1022.3
20260903121019 54 117 5.0 6.0 0.00 0.00 0.00 70 1022.2
20260903120517 54 110 4.0 6.0 0.00 0.00 0.00 70 1022.1
20260903120053 53 113 3.0 5.0 0.00 0.00 0.00 71 1022.3
20260903115522 53 93 3.0 5.0 0.00 0.00 0.00 71 1022.2
20260903115021 54 78 4.0 6.0 0.00 0.00 0.00 70 1022.2
20260903114540 54 83 4.0 6.0 0.00 0.00 0.00 70 1022.2
20260903114020 54 86 4.0 6.0 0.00 0.00 0.00 69 1022.1
20260903113520 54 82 4.0 7.0 0.00 0.00 0.00 69 1022.1
20260903113041 54 84 4.0 7.0 0.00 0.00 0.00 70 1022.0
20260903112520 55 76 5.0 7.0 0.00 0.00 0.00 69 1022.1
20260903112020 55 77 5.0 7.0 0.00 0.00 0.00 68 1022.1
20260903111536 55 71 5.0 7.0 0.00 0.00 0.00 69 1022.0
20260903111017 56 86 5.0 7.0 0.00 0.00 0.00 68 1022.1
20260903110518 56 78 5.0 8.0 0.00 0.00 0.00 67 1021.9
20260903110038 56 70 5.0 9.0 0.00 0.00 0.00 67 1022.1
20260903105518 56 75 5.0 9.0 0.00 0.00 0.00 68 1022.0
20260903105021 56 63 6.0 9.0 0.00 0.00 0.00 67 1022.0
20260903104547 57 103 5.0 11.0 0.00 0.00 0.00 65 1022.0
20260903104019 57 65 5.0 11.0 0.00 0.00 0.00 65 1022.1
20260903103525 56 56 6.0 11.0 0.00 0.00 0.00 68 1021.9
20260903103040 56 65 4.0 8.0 0.00 0.00 0.00 69 1022.1
20260903102518 56 85 4.0 8.0 0.00 0.00 0.00 69 1022.0
20260903102019 56 56 2.0 3.0 0.00 0.00 0.00 67 1022.1
20260903101539 57 53 2.0 3.0 0.00 0.00 0.00 65 1022.1
20260903101020 57 53 3.0 3.0 0.00 0.00 0.00 64 1022.1
20260903100517 59 99 0.0 7.0 0.00 0.00 0.00 61 1022.1
20260903100038 60 115 2.0 8.0 0.00 0.00 0.00 59 1022.1
20260903095520 61 162 4.0 9.0 0.00 0.00 0.00 57 1021.9
20260903095021 61 184 5.0 9.0 0.00 0.00 0.00 57 1021.8
20260903094542 60 152 5.0 8.0 0.00 0.00 0.00 59 1021.9
20260903094020 60 158 2.0 5.0 0.00 0.00 0.00 61 1021.8
20260903093520 60 148 3.0 8.0 0.00 0.00 0.00 59 1021.7
20260903093051 61 139 3.0 11.0 0.00 0.00 0.00 58 1021.8
20260903092521 62 137 5.0 11.0 0.00 0.00 0.00 56 1021.8
20260903092020 62 165 6.0 10.0 0.00 0.00 0.00 56 1021.7
20260903091602 62 167 6.0 11.0 0.00 0.00 0.00 56 1021.6
20260903091016 63 160 7.0 11.0 0.00 0.00 0.00 56 1021.5
20260903090518 63 187 6.0 10.0 0.00 0.00 0.00 56 1021.6
20260903090038 63 176 7.0 10.0 0.00 0.00 0.00 56 1021.6
20260903085521 63 176 7.0 12.0 0.00 0.00 0.00 56 1021.6
20260903085020 63 177 6.0 12.0 0.00 0.00 0.00 56 1021.6
20260903084540 63 178 7.0 12.0 0.00 0.00 0.00 56 1021.6
20260903084019 63 188 6.0 13.0 0.00 0.00 0.00 56 1021.6
20260903083518 63 178 8.0 13.0 0.00 0.00 0.00 56 1021.6
20260903083039 63 167 9.0 13.0 0.00 0.00 0.00 56 1021.6
20260903082521 63 151 8.0 12.0 0.00 0.00 0.00 57 1021.6
20260903082018 63 150 7.0 13.0 0.00 0.00 0.00 57 1021.5
20260903081542 63 140 6.0 13.0 0.00 0.00 0.00 57 1021.5
20260903081020 62 158 5.0 11.0 0.00 0.00 0.00 57 1021.6
20260903080520 63 158 6.0 12.0 0.00 0.00 0.00 56 1021.6
20260903080040 64 162 8.0 12.0 0.00 0.00 0.00 55 1021.7
20260903075520 64 179 7.0 12.0 0.00 0.00 0.00 56 1021.6
20260903075021 64 169 8.0 12.0 0.00 0.00 0.00 56 1021.6
20260903074544 63 136 5.0 8.0 0.00 0.00 0.00 55 1021.7
20260903074023 64 185 3.0 10.0 0.00 0.00 0.00 55 1021.7
20260903073518 64 198 5.0 10.0 0.00 0.00 0.00 54 1021.6
20260903073041 64 209 5.0 11.0 0.00 0.00 0.00 54 1021.6
20260903072520 64 215 7.0 11.0 0.00 0.00 0.00 54 1021.6
20260903072020 64 179 6.0 10.0 0.00 0.00 0.00 54 1021.6
20260903071538 64 169 4.0 9.0 0.00 0.00 0.00 54 1021.5
20260903071020 64 188 6.0 11.0 0.00 0.00 0.00 53 1021.6
20260903070520 64 182 7.0 13.0 0.00 0.00 0.00 53 1021.4
20260903070040 64 177 8.0 13.0 0.00 0.00 0.00 53 1021.5
20260903065520 65 169 8.0 14.0 0.00 0.00 0.00 52 1021.4
20260903065017 65 188 9.0 14.0 0.00 0.00 0.00 52 1021.4
20260903064542 65 158 8.0 13.0 0.00 0.00 0.00 52 1021.4
20260903064021 65 176 8.0 15.0 0.00 0.00 0.00 51 1021.2
20260903063521 65 190 11.0 16.0 0.00 0.00 0.00 51 1021.3
20260903063035 65 175 10.0 16.0 0.00 0.00 0.00 51 1021.3
20260903062518 65 139 11.0 16.0 0.00 0.00 0.00 51 1021.3
20260903062020 65 163 11.0 16.0 0.00 0.00 0.00 51 1021.3
20260903061543 65 179 10.0 16.0 0.00 0.00 0.00 51 1021.3
20260903061025 65 175 10.0 16.0 0.00 0.00 0.00 51 1021.3
20260903060521 65 179 12.0 16.0 0.00 0.00 0.00 51 1021.1
20260903060040 65 152 8.0 14.0 0.00 0.00 0.00 51 1021.1
20260903055519 64 190 9.0 16.0 0.00 0.00 0.00 52 1021.2
20260903055018 64 167 9.0 16.0 0.00 0.00 0.00 52 1021.1
20260903054541 64 165 8.0 13.0 0.00 0.00 0.00 52 1021.2
20260903054020 64 163 7.0 11.0 0.00 0.00 0.00 53 1021.1
20260903053520 63 143 7.0 12.0 0.00 0.00 0.00 53 1021.1
20260903053041 63 166 7.0 13.0 0.00 0.00 0.00 53 1021.1
20260903052517 64 155 7.0 13.0 0.00 0.00 0.00 52 1021.2
20260903052020 64 155 9.0 13.0 0.00 0.00 0.00 52 1021.2
20260903051540 64 158 8.0 12.0 0.00 0.00 0.00 53 1021.2
20260903051021 63 146 8.0 14.0 0.00 0.00 0.00 53 1021.3
20260903050519 64 157 7.0 14.0 0.00 0.00 0.00 53 1021.4
20260903050037 63 167 9.0 14.0 0.00 0.00 0.00 53 1021.4
20260903045519 63 151 7.0 11.0 0.00 0.00 0.00 54 1021.4
20260903045021 63 158 8.0 12.0 0.00 0.00 0.00 54 1021.4
20260903044540 63 179 7.0 17.0 0.00 0.00 0.00 53 1021.4
20260903044018 64 176 9.0 17.0 0.00 0.00 0.00 53 1021.3